When you browse on this site, cookies collect data to enhance your experience and personalize the content and advertising you see.
Visit our Privacy Policy to learn more. By continuing to use the site, you agree to this use of cookies and data.
  • In Latvia
  • List of Countries
  • For 7 days
  • Water Temperature
  • Satellite Maps
  • Weather Map
  • Weather Widgets
  • user-avatar
    Login

    Hourly Weather Perth

    Today, 27 May, Monday

    Time Temperature Precipitation Wind Pressure Humidity
    00:00 +15°C° 0 mm 5 mps 767 mmHg 56%
    01:00 +14°C° 0 mm 5 mps 767 mmHg 57%
    02:00 +14°C° 0 mm 5 mps 768 mmHg 58%
    03:00 +14°C° 0 mm 5 mps 768 mmHg 60%
    04:00 +13°C° 0 mm 5 mps 767 mmHg 61%
    05:00 +13°C° 0 mm 5 mps 767 mmHg 62%
    06:00 +13°C° 0 mm 5 mps 768 mmHg 63%
    07:00 +13°C° 0 mm 5 mps 768 mmHg 64%
    08:00 +13°C° 0 mm 5 mps 768 mmHg 64%
    09:00 +15°C° 0 mm 5 mps 768 mmHg 58%
    10:00 +17°C° 0 mm 5 mps 767 mmHg 52%
    11:00 +20°C° 0 mm 5 mps 767 mmHg 46%
    12:00 +21°C° 0 mm 5 mps 767 mmHg 43%
    13:00 +22°C° 0 mm 5 mps 766 mmHg 40%
    14:00 +23°C° 0 mm 4 mps 765 mmHg 37%
    15:00 +22°C° 0 mm 4 mps 765 mmHg 39%
    16:00 +21°C° 0 mm 4 mps 765 mmHg 41%
    17:00 +21°C° 0 mm 3 mps 765 mmHg 43%
    18:00 +20°C° 0 mm 4 mps 765 mmHg 44%
    19:00 +19°C° 0 mm 4 mps 766 mmHg 45%
    20:00 +17°C° 0 mm 5 mps 766 mmHg 47%
    21:00 +17°C° 0 mm 5 mps 766 mmHg 47%
    22:00 +17°C° 0 mm 5 mps 766 mmHg 46%
    23:00 +16°C° 0 mm 6 mps 766 mmHg 46%

    Tomorrow, 28 May, Tuesday

    Time Temperature Precipitation Wind Pressure Humidity
    00:00 +16°C° 0 mm 6 mps 766 mmHg 47%
    01:00 +16°C° 0 mm 6 mps 766 mmHg 48%
    02:00 +16°C° 0 mm 6 mps 766 mmHg 49%
    03:00 +15°C° 0 mm 6 mps 766 mmHg 49%
    04:00 +15°C° 0 mm 6 mps 766 mmHg 50%
    05:00 +15°C° 0 mm 6 mps 766 mmHg 51%
    06:00 +15°C° 0 mm 6 mps 766 mmHg 52%
    07:00 +15°C° 0 mm 6 mps 766 mmHg 52%
    08:00 +15°C° 0 mm 6 mps 766 mmHg 52%
    09:00 +17°C° 0 mm 6 mps 766 mmHg 48%
    10:00 +20°C° 0 mm 5 mps 766 mmHg 43%
    11:00 +22°C° 0 mm 5 mps 766 mmHg 38%
    12:00 +23°C° 0 mm 5 mps 765 mmHg 36%
    13:00 +25°C° 0 mm 5 mps 764 mmHg 35%
    14:00 +25°C° 0 mm 4 mps 764 mmHg 33%
    15:00 +25°C° 0 mm 4 mps 764 mmHg 34%
    16:00 +23°C° 0 mm 4 mps 764 mmHg 36%
    17:00 +22°C° 0 mm 3 mps 764 mmHg 37%
    18:00 +21°C° 0 mm 4 mps 764 mmHg 37%
    19:00 +20°C° 0 mm 5 mps 764 mmHg 38%
    20:00 +19°C° 0 mm 5 mps 765 mmHg 38%
    21:00 +19°C° 0 mm 5 mps 765 mmHg 39%
    22:00 +19°C° 0 mm 6 mps 765 mmHg 40%
    23:00 +17°C° 0 mm 6 mps 765 mmHg 40%

    Day after tomorrow, 29 May, Wednesday

    Time Temperature Precipitation Wind Pressure Humidity
    00:00 +17°C° 0 mm 6 mps 765 mmHg 41%
    01:00 +17°C° 0 mm 6 mps 765 mmHg 42%
    02:00 +16°C° 0 mm 6 mps 765 mmHg 43%
    03:00 +16°C° 0 mm 6 mps 765 mmHg 45%
    04:00 +15°C° 0 mm 6 mps 765 mmHg 47%
    05:00 +15°C° 0 mm 6 mps 765 mmHg 48%
    06:00 +15°C° 0 mm 6 mps 765 mmHg 49%
    07:00 +15°C° 0 mm 6 mps 766 mmHg 49%
    08:00 +15°C° 0 mm 6 mps 766 mmHg 50%
    09:00 +16°C° 0 mm 6 mps 766 mmHg 45%
    10:00 +19°C° 0 mm 6 mps 766 mmHg 41%
    11:00 +21°C° 0 mm 6 mps 766 mmHg 36%
    12:00 +22°C° 0 mm 6 mps 765 mmHg 34%
    13:00 +23°C° 0 mm 6 mps 764 mmHg 32%
    14:00 +24°C° 0 mm 6 mps 764 mmHg 29%
    15:00 +25°C° 0 mm 5 mps 764 mmHg 31%
    16:00 +23°C° 0 mm 5 mps 764 mmHg 32%
    17:00 +22°C° 0 mm 4 mps 764 mmHg 33%
    18:00 +22°C° 0 mm 5 mps 764 mmHg 34%
    19:00 +21°C° 0 mm 5 mps 764 mmHg 34%
    20:00 +20°C° 0 mm 5 mps 765 mmHg 34%
    21:00 +20°C° 0 mm 6 mps 765 mmHg 34%
    22:00 +20°C° 0 mm 6 mps 765 mmHg 34%
    23:00 +20°C° 0 mm 6 mps 765 mmHg 34%

    30 May, Thursday

    Time Temperature Precipitation Wind Pressure Humidity
    00:00 +20°C° 0 mm 6 mps 765 mmHg 35%
    01:00 +18°C° 0 mm 7 mps 764 mmHg 36%
    02:00 +18°C° 0 mm 7 mps 764 mmHg 37%
    03:00 +18°C° 0 mm 7 mps 764 mmHg 39%
    04:00 +18°C° 0 mm 7 mps 764 mmHg 41%
    05:00 +17°C° 0 mm 7 mps 764 mmHg 43%
    06:00 +17°C° 0 mm 7 mps 764 mmHg 43%
    07:00 +17°C° 0 mm 7 mps 765 mmHg 44%
    08:00 +17°C° 0 mm 7 mps 765 mmHg 45%
    09:00 +18°C° 0 mm 7 mps 765 mmHg 43%
    10:00 +21°C° 0 mm 7 mps 765 mmHg 40%
    11:00 +22°C° 0 mm 7 mps 764 mmHg 38%
    12:00 +24°C° 0 mm 7 mps 764 mmHg 36%
    13:00 +26°C° 0 mm 6 mps 763 mmHg 34%
    14:00 +27°C° 0 mm 6 mps 762 mmHg 32%
    15:00 +26°C° 0 mm 5 mps 762 mmHg 33%
    16:00 +26°C° 0 mm 4 mps 762 mmHg 35%
    17:00 +26°C° 0 mm 4 mps 762 mmHg 36%
    18:00 +25°C° 0 mm 3 mps 763 mmHg 37%
    19:00 +24°C° 0 mm 3 mps 763 mmHg 37%
    20:00 +24°C° 0 mm 3 mps 764 mmHg 38%
    21:00 +24°C° 0 mm 3 mps 764 mmHg 39%
    22:00 +22°C° 0 mm 3 mps 764 mmHg 41%
    23:00 +22°C° 0 mm 4 mps 764 mmHg 42%

    31 May, Friday

    Time Temperature Precipitation Wind Pressure Humidity
    00:00 +22°C° 0 mm 3 mps 764 mmHg 46%
    01:00 +22°C° 0 mm 3 mps 764 mmHg 49%
    02:00 +21°C° 0 mm 3 mps 763 mmHg 53%
    03:00 +21°C° 0.1 mm 3 mps 764 mmHg 54%
    04:00 +21°C° 0.1 mm 3 mps 764 mmHg 56%
    05:00 +20°C° 0.1 mm 3 mps 764 mmHg 58%
    06:00 +20°C° 0 mm 3 mps 764 mmHg 59%
    07:00 +20°C° 0 mm 2 mps 765 mmHg 60%
    08:00 +20°C° 0 mm 2 mps 765 mmHg 61%
    09:00 +21°C° 0.1 mm 3 mps 765 mmHg 58%
    10:00 +22°C° 0.1 mm 3 mps 766 mmHg 55%
    11:00 +25°C° 0.1 mm 3 mps 766 mmHg 52%
    12:00 +25°C° 0.1 mm 3 mps 766 mmHg 53%
    13:00 +25°C° 0.1 mm 3 mps 765 mmHg 54%
    14:00 +25°C° 0.1 mm 3 mps 765 mmHg 55%
    15:00 +24°C° 0.1 mm 3 mps 765 mmHg 62%
    16:00 +22°C° 0.1 mm 3 mps 766 mmHg 68%
    17:00 +21°C° 0.1 mm 3 mps 766 mmHg 75%
    18:00 +20°C° 0 mm 3 mps 766 mmHg 79%
    19:00 +19°C° 0 mm 3 mps 767 mmHg 82%
    20:00 +18°C° 0 mm 3 mps 767 mmHg 86%
    21:00 +18°C° 0 mm 3 mps 768 mmHg 87%
    22:00 +18°C° 0 mm 2 mps 768 mmHg 88%
    23:00 +17°C° 0 mm 2 mps 768 mmHg 89%

    1 June, Saturday

    Time Temperature Precipitation Wind Pressure Humidity
    00:00 +17°C° 0 mm 2 mps 768 mmHg 88%
    01:00 +17°C° 0 mm 2 mps 768 mmHg 88%
    02:00 +16°C° 0 mm 2 mps 767 mmHg 88%
    03:00 +16°C° 0 mm 2 mps 767 mmHg 86%
    04:00 +16°C° 0 mm 2 mps 767 mmHg 85%
    05:00 +16°C° 0 mm 2 mps 767 mmHg 83%
    06:00 +16°C° 0 mm 2 mps 768 mmHg 81%
    07:00 +16°C° 0 mm 2 mps 768 mmHg 78%
    08:00 +16°C° 0 mm 3 mps 768 mmHg 76%
    09:00 +18°C° 0 mm 2 mps 768 mmHg 66%
    10:00 +21°C° 0 mm 2 mps 768 mmHg 57%
    11:00 +24°C° 0 mm 2 mps 768 mmHg 48%
    12:00 +25°C° 0 mm 2 mps 768 mmHg 43%
    13:00 +26°C° 0 mm 2 mps 767 mmHg 39%
    14:00 +27°C° 0 mm 2 mps 766 mmHg 35%
    15:00 +26°C° 0 mm 2 mps 766 mmHg 39%
    16:00 +25°C° 0 mm 1 mps 767 mmHg 43%
    17:00 +24°C° 0 mm 1 mps 767 mmHg 47%
    18:00 +23°C° 0 mm 1 mps 767 mmHg 49%
    19:00 +22°C° 0 mm 1 mps 768 mmHg 51%
    20:00 +20°C° 0 mm 1 mps 768 mmHg 54%
    21:00 +19°C° 0 mm 2 mps 768 mmHg 51%
    22:00 +19°C° 0 mm 2 mps 768 mmHg 49%
    23:00 +18°C° 0 mm 2 mps 768 mmHg 47%
    Show more